Location: Unspecified
(0.0000°N, 0.0000°E)
Time: 04:49:39
(UTC+01:00)

Orbus 21S - Visible Passes

Search period start: 07 February 2016 00:00
Search period end: 17 February 2016 00:00
Orbit: 267 x 33246 km, 24.3° (Epoch: 05 February)

Date Brightness Start Highest point End Pass type
(mag) Time Alt. Az. Time Alt. Az. Time Alt. Az.
07 Feb 7.8 23:54:20 10° WNW 01:30:58 50° W 08:51:31 10° ESE visible
08 Feb 7.5 18:58:51 10° NW 19:19:36 49° NE 03:59:09 10° ESE visible
10 Feb 7.0 00:40:34 10° WNW 02:10:43 38° W 09:31:02 10° E visible
10 Feb 7.8 19:38:15 10° NW 20:08:44 60° NE 04:40:53 10° ESE visible
11 Feb 10.1 21:04:23 10° ESE 21:54:26 12° ESE 22:33:48 10° ESE visible
12 Feb 9.5 01:31:30 10° WNW 02:49:38 26° W 05:45:06 10° WSW visible
12 Feb 8.1 20:17:24 10° NW 21:08:46 72° NE 05:21:22 10° ESE visible
13 Feb 9.8 19:49:52 10° E 22:28:44 22° ESE 23:53:52 10° ESE visible
14 Feb 9.9 02:38:05 10° W 03:27:32 14° W 04:42:15 10° W visible
14 Feb 8.4 20:56:25 10° NW 22:48:50 85° ESE 06:00:50 10° ESE visible
15 Feb 6.2 16:10:47 10° NNW 23:02:14 32° ESE 00:47:49 10° ESE visible
